User: anonymous   Login
Location: Knowlton
(51.2333°N, 1.2667°E)
Time: 12:01:57
(UTC+00:00)
Language:

Cosmos 407 Rocket - Orbit

View from above orbital plane
View from above orbital plane
View from above satellite
View from above satellite

Ground track
Ground track

The orbit data is extracted from the following two-line orbital elements,

1 05175U 71035B   21170.91752445  .00000003  00000-0  97156-5 0  9998
2 05175  74.0494  35.5977 0030834 242.4069 117.3952 14.38034943625087
Epoch (UTC): 19 June 2021 22:01:14
Eccentricity: 0.0030834
inclination: 74.0494°
perigee height: 743 km
apogee height: 787 km
right ascension of ascending node: 35.5977°
argument of perigee: 242.4069°
revolutions per day: 14.38034943
mean anomaly at epoch: 117.3952°
orbit number at epoch: 62508

The dashed part of the orbit path shows where the satellite is in the earth's shadow,  

DLR